Time,TemperatureF,DewpointF,PressureIn,WindDirection,WindDirectionDegrees,WindSpeedMPH,WindSpeedGustMPH,Humidity,HourlyPrecipIn,Conditions,Clouds,dailyrainin,SoftwareType,DateUTC
2013-03-27 00:00:00,29.7,21.1,29.71,North,357,0.0,1.0,70,0.00,,---,0.00,VWS V14.00,2013-03-27 05:00:00,
2013-03-27 00:05:00,29.5,20.9,29.71,North,357,0.0,1.0,70,0.00,,---,0.00,VWS V14.00,2013-03-27 05:05:00,
2013-03-27 00:10:00,29.5,21.2,29.71,North,357,0.0,1.0,71,0.00,,---,0.00,VWS V14.00,2013-03-27 05:10:00,
2013-03-27 00:15:00,29.3,21.1,29.71,North,357,0.0,1.0,71,0.00,,---,0.00,VWS V14.00,2013-03-27 05:15:00,
2013-03-27 00:20:00,29.3,21.4,29.71,North,357,0.0,1.0,72,0.00,,---,0.00,VWS V14.00,2013-03-27 05:20:00,
2013-03-27 00:25:00,29.3,21.4,29.71,North,357,0.0,1.0,72,0.00,,---,0.00,VWS V14.00,2013-03-27 05:25:00,
2013-03-27 00:30:00,29.3,21.4,29.71,North,357,0.0,1.0,72,0.00,,---,0.00,VWS V14.00,2013-03-27 05:30:00,
2013-03-27 00:35:00,29.1,21.2,29.71,North,357,0.0,1.0,72,0.00,,---,0.00,VWS V14.00,2013-03-27 05:35:00,
2013-03-27 00:40:00,28.9,21.1,29.71,North,357,0.0,1.0,72,0.00,,---,0.00,VWS V14.00,2013-03-27 05:40:00,
2013-03-27 00:45:00,28.8,21.2,29.71,North,357,0.0,1.0,73,0.00,,---,0.00,VWS V14.00,2013-03-27 05:45:00,
2013-03-27 00:50:00,28.6,21.0,29.71,North,357,0.0,1.0,73,0.00,,---,0.00,VWS V14.00,2013-03-27 05:50:00,
2013-03-27 00:55:00,28.4,20.9,29.71,North,357,0.0,1.0,73,0.00,,---,0.00,VWS V14.00,2013-03-27 05:55:00,
2013-03-27 01:00:00,28.2,21.0,29.71,North,357,0.0,1.0,74,0.00,,---,0.00,VWS V14.00,2013-03-27 06:00:00,
2013-03-27 01:05:00,28.2,21.0,29.71,North,357,4.7,6.6,74,0.00,,---,0.00,VWS V14.00,2013-03-27 06:05:00,
2013-03-27 01:10:00,28.4,21.2,29.71,North,357,0.0,1.0,74,0.00,,---,0.00,VWS V14.00,2013-03-27 06:10:00,
2013-03-27 01:15:00,28.6,21.4,29.71,North,357,0.0,1.0,74,0.00,,---,0.00,VWS V14.00,2013-03-27 06:15:00,
2013-03-27 01:20:00,28.6,21.4,29.71,North,0,4.7,6.6,74,0.00,,---,0.00,VWS V14.00,2013-03-27 06:20:00,
2013-03-27 01:25:00,28.6,21.4,29.71,North,3,4.0,5.8,74,0.00,,---,0.00,VWS V14.00,2013-03-27 06:25:00,
2013-03-27 01:30:00,28.4,21.5,29.71,North,3,4.0,5.8,75,0.00,,---,0.00,VWS V14.00,2013-03-27 06:30:00,
2013-03-27 01:35:00,28.4,21.5,29.71,North,3,3.4,5.0,75,0.00,,---,0.00,VWS V14.00,2013-03-27 06:35:00,
2013-03-27 01:40:00,28.4,21.5,29.71,North,3,4.0,5.8,75,0.00,,---,0.00,VWS V14.00,2013-03-27 06:40:00,
2013-03-27 01:45:00,28.4,21.5,29.71,North,3,4.0,5.8,75,0.00,,---,0.00,VWS V14.00,2013-03-27 06:45:00,
2013-03-27 01:50:00,27.9,21.0,29.71,North,3,0.0,1.0,75,0.00,,---,0.00,VWS V14.00,2013-03-27 06:50:00,
2013-03-27 01:55:00,27.9,21.0,29.71,North,3,0.0,1.0,75,0.00,,---,0.00,VWS V14.00,2013-03-27 06:55:00,
2013-03-27 02:00:00,27.9,21.0,29.71,North,3,0.0,1.0,75,0.00,,---,0.00,VWS V14.00,2013-03-27 07:00:00,
2013-03-27 02:05:00,27.9,21.0,29.71,North,3,0.0,1.0,75,0.00,,---,0.00,VWS V14.00,2013-03-27 07:05:00,
2013-03-27 02:10:00,29.3,22.4,29.71,North,3,0.0,1.0,75,0.00,,---,0.00,VWS V14.00,2013-03-27 07:10:00,
2013-03-27 02:15:00,29.7,22.7,29.71,North,3,0.0,1.0,75,0.00,,---,0.00,VWS V14.00,2013-03-27 07:15:00,
2013-03-27 02:20:00,29.7,22.7,29.71,North,3,0.0,1.0,75,0.00,,---,0.00,VWS V14.00,2013-03-27 07:20:00,
2013-03-27 02:25:00,30.2,23.2,29.71,North,3,0.0,1.0,75,0.00,,---,0.00,VWS V14.00,2013-03-27 07:25:00,
2013-03-27 02:30:00,30.2,23.2,29.71,North,3,0.0,1.0,75,0.00,,---,0.00,VWS V14.00,2013-03-27 07:30:00,
2013-03-27 02:35:00,29.7,22.7,29.71,North,3,0.0,1.0,75,0.00,,---,0.00,VWS V14.00,2013-03-27 07:35:00,
2013-03-27 02:40:00,28.8,21.5,29.71,North,3,0.0,1.0,74,0.00,,---,0.00,VWS V14.00,2013-03-27 07:40:00,
2013-03-27 02:45:00,28.4,21.2,29.71,North,3,0.0,1.0,74,0.00,,---,0.00,VWS V14.00,2013-03-27 07:45:00,
2013-03-27 02:50:00,28.0,20.8,29.71,North,3,0.0,1.0,74,0.00,,---,0.00,VWS V14.00,2013-03-27 07:50:00,
2013-03-27 02:55:00,27.9,20.7,29.71,North,3,0.0,1.0,74,0.00,,---,0.00,VWS V14.00,2013-03-27 07:55:00,
2013-03-27 03:00:00,27.3,20.1,29.71,North,3,0.0,1.0,74,0.00,,---,0.00,VWS V14.00,2013-03-27 08:00:00,
2013-03-27 03:05:00,27.3,20.1,29.71,North,3,0.0,1.0,74,0.00,,---,0.00,VWS V14.00,2013-03-27 08:05:00,
2013-03-27 03:10:00,27.1,20.0,29.71,North,3,0.0,1.0,74,0.00,,---,0.00,VWS V14.00,2013-03-27 08:10:00,
2013-03-27 03:15:00,27.1,20.0,29.71,North,3,0.0,1.0,74,0.00,,---,0.00,VWS V14.00,2013-03-27 08:15:00,
2013-03-27 03:20:00,27.1,20.0,29.71,North,3,0.0,1.0,74,0.00,,---,0.00,VWS V14.00,2013-03-27 08:20:00,
2013-03-27 03:25:00,27.1,20.0,29.71,North,3,0.0,1.0,74,0.00,,---,0.00,VWS V14.00,2013-03-27 08:25:00,
2013-03-27 03:30:00,27.0,20.1,29.71,North,3,0.0,1.0,75,0.00,,---,0.00,VWS V14.00,2013-03-27 08:30:00,
2013-03-27 03:35:00,27.0,20.1,29.71,North,3,0.0,1.0,75,0.00,,---,0.00,VWS V14.00,2013-03-27 08:35:00,
2013-03-27 03:40:00,26.8,19.9,29.71,North,3,0.0,1.0,75,0.00,,---,0.00,VWS V14.00,2013-03-27 08:40:00,
2013-03-27 03:45:00,26.8,19.9,29.71,North,3,0.0,1.0,75,0.00,,---,0.00,VWS V14.00,2013-03-27 08:45:00,
2013-03-27 03:50:00,26.8,19.9,29.71,North,3,0.0,1.0,75,0.00,,---,0.00,VWS V14.00,2013-03-27 08:50:00,
2013-03-27 03:55:00,26.8,20.2,29.71,North,0,3.4,5.0,76,0.00,,---,0.00,VWS V14.00,2013-03-27 08:55:00,
2013-03-27 04:00:00,26.8,20.2,29.71,North,0,0.0,1.0,76,0.00,,---,0.00,VWS V14.00,2013-03-27 09:00:00,
2013-03-27 04:05:00,26.8,20.2,29.71,North,0,0.0,1.0,76,0.00,,---,0.00,VWS V14.00,2013-03-27 09:05:00,
2013-03-27 04:10:00,26.8,20.2,29.71,North,0,0.0,1.0,76,0.00,,---,0.00,VWS V14.00,2013-03-27 09:10:00,
2013-03-27 04:15:00,26.6,20.4,29.71,North,0,0.0,1.0,77,0.00,,---,0.00,VWS V14.00,2013-03-27 09:15:00,
2013-03-27 04:20:00,26.6,20.4,29.71,North,0,0.0,1.0,77,0.00,,---,0.00,VWS V14.00,2013-03-27 09:20:00,
2013-03-27 04:25:00,26.4,20.2,29.71,North,0,0.0,1.0,77,0.00,,---,0.00,VWS V14.00,2013-03-27 09:25:00,
2013-03-27 04:30:00,26.4,20.2,29.71,North,0,0.0,1.0,77,0.00,,---,0.00,VWS V14.00,2013-03-27 09:30:00,
2013-03-27 04:35:00,26.2,20.0,29.71,North,0,0.0,1.0,77,0.00,,---,0.00,VWS V14.00,2013-03-27 09:35:00,
2013-03-27 04:40:00,26.1,19.9,29.71,North,0,0.0,1.0,77,0.00,,---,0.00,VWS V14.00,2013-03-27 09:40:00,
2013-03-27 04:45:00,26.1,19.9,29.71,North,0,0.0,1.0,77,0.00,,---,0.00,VWS V14.00,2013-03-27 09:45:00,
2013-03-27 04:50:00,25.9,19.7,29.71,North,0,0.0,1.0,77,0.00,,---,0.00,VWS V14.00,2013-03-27 09:50:00,
2013-03-27 04:55:00,25.9,19.7,29.71,North,0,0.0,1.0,77,0.00,,---,0.00,VWS V14.00,2013-03-27 09:55:00,
2013-03-27 05:00:00,25.9,19.7,29.71,North,0,0.0,1.0,77,0.00,,---,0.00,VWS V14.00,2013-03-27 10:00:00,
2013-03-27 05:05:00,25.7,19.5,29.71,North,0,0.0,1.0,77,0.00,,---,0.00,VWS V14.00,2013-03-27 10:05:00,
2013-03-27 05:10:00,25.5,19.3,29.71,North,0,0.0,1.0,77,0.00,,---,0.00,VWS V14.00,2013-03-27 10:10:00,
2013-03-27 05:15:00,25.3,19.1,29.71,North,0,0.0,1.0,77,0.00,,---,0.00,VWS V14.00,2013-03-27 10:15:00,
2013-03-27 05:20:00,25.3,19.1,29.71,North,0,0.0,1.0,77,0.00,,---,0.00,VWS V14.00,2013-03-27 10:20:00,
2013-03-27 05:25:00,24.8,18.9,29.71,North,0,0.0,1.0,78,0.00,,---,0.00,VWS V14.00,2013-03-27 10:25:00,
2013-03-27 05:30:00,24.8,18.9,29.71,North,0,0.0,1.0,78,0.00,,---,0.00,VWS V14.00,2013-03-27 10:30:00,
2013-03-27 05:35:00,24.8,18.9,29.71,North,0,0.0,1.0,78,0.00,,---,0.00,VWS V14.00,2013-03-27 10:35:00,
2013-03-27 05:40:00,24.8,18.9,29.71,North,0,0.0,1.0,78,0.00,,---,0.00,VWS V14.00,2013-03-27 10:40:00,
2013-03-27 05:45:00,24.6,18.8,29.71,North,0,0.0,1.0,78,0.00,,---,0.00,VWS V14.00,2013-03-27 10:45:00,
2013-03-27 05:50:00,24.6,18.8,29.74,North,0,0.0,1.0,78,0.00,,---,0.00,VWS V14.00,2013-03-27 10:50:00,
2013-03-27 05:55:00,24.6,19.0,29.74,North,0,0.0,1.0,79,0.00,,---,0.00,VWS V14.00,2013-03-27 10:55:00,
2013-03-27 06:00:00,24.6,19.0,29.74,North,0,0.0,1.0,79,0.00,,---,0.00,VWS V14.00,2013-03-27 11:00:00,
2013-03-27 06:05:00,24.8,19.2,29.74,North,0,0.0,1.0,79,0.00,,---,0.00,VWS V14.00,2013-03-27 11:05:00,
2013-03-27 06:10:00,24.8,19.2,29.71,North,0,0.0,1.0,79,0.00,,---,0.00,VWS V14.00,2013-03-27 11:10:00,
2013-03-27 06:15:00,24.8,19.2,29.71,North,0,0.0,1.0,79,0.00,,---,0.00,VWS V14.00,2013-03-27 11:15:00,
2013-03-27 06:20:00,24.4,18.9,29.74,North,0,0.0,1.0,79,0.00,,---,0.00,VWS V14.00,2013-03-27 11:20:00,
2013-03-27 06:25:00,24.4,18.9,29.74,North,0,0.0,1.0,79,0.00,,---,0.00,VWS V14.00,2013-03-27 11:25:00,
2013-03-27 06:30:00,24.3,18.7,29.74,North,0,0.0,1.0,79,0.00,,---,0.00,VWS V14.00,2013-03-27 11:30:00,
2013-03-27 06:35:00,24.3,18.7,29.74,North,0,0.0,1.0,79,0.00,,---,0.00,VWS V14.00,2013-03-27 11:35:00,
2013-03-27 06:40:00,24.1,18.5,29.74,North,0,0.0,1.0,79,0.00,,---,0.00,VWS V14.00,2013-03-27 11:40:00,
2013-03-27 06:45:00,24.1,18.5,29.74,North,0,0.0,1.0,79,0.00,,---,0.00,VWS V14.00,2013-03-27 11:45:00,
2013-03-27 06:50:00,24.1,18.8,29.74,North,0,0.0,1.0,80,0.00,,---,0.00,VWS V14.00,2013-03-27 11:50:00,
2013-03-27 06:55:00,24.1,18.8,29.74,North,0,0.0,1.0,80,0.00,,---,0.00,VWS V14.00,2013-03-27 11:55:00,
2013-03-27 07:00:00,24.3,19.0,29.74,North,0,0.0,1.0,80,0.00,,---,0.00,VWS V14.00,2013-03-27 12:00:00,
2013-03-27 07:05:00,24.3,19.0,29.74,North,0,0.0,1.0,80,0.00,,---,0.00,VWS V14.00,2013-03-27 12:05:00,
2013-03-27 07:10:00,24.4,19.2,29.74,North,0,0.0,1.0,80,0.00,,---,0.00,VWS V14.00,2013-03-27 12:10:00,
2013-03-27 07:15:00,24.4,19.5,29.74,North,0,0.0,1.0,81,0.00,,---,0.00,VWS V14.00,2013-03-27 12:15:00,
2013-03-27 07:20:00,24.4,19.5,29.74,North,0,0.0,1.0,81,0.00,,---,0.00,VWS V14.00,2013-03-27 12:20:00,
2013-03-27 07:25:00,24.8,19.8,29.74,North,0,0.0,1.0,81,0.00,,---,0.00,VWS V14.00,2013-03-27 12:25:00,
2013-03-27 07:30:00,24.8,19.8,29.74,North,0,0.0,1.0,81,0.00,,---,0.00,VWS V14.00,2013-03-27 12:30:00,
2013-03-27 07:35:00,25.3,20.3,29.74,North,0,0.0,1.0,81,0.00,,---,0.00,VWS V14.00,2013-03-27 12:35:00,
2013-03-27 07:40:00,25.5,20.5,29.74,North,0,0.0,1.0,81,0.00,,---,0.00,VWS V14.00,2013-03-27 12:40:00,
2013-03-27 07:45:00,25.5,20.5,29.74,North,0,0.0,1.0,81,0.00,,---,0.00,VWS V14.00,2013-03-27 12:45:00,
2013-03-27 07:50:00,25.5,20.5,29.74,North,0,0.0,1.0,81,0.00,,---,0.00,VWS V14.00,2013-03-27 12:50:00,
2013-03-27 07:55:00,27.0,22.2,29.74,North,0,0.0,1.0,82,0.00,,---,0.00,VWS V14.00,2013-03-27 12:55:00,
2013-03-27 08:00:00,28.0,23.3,29.74,North,0,0.0,1.0,82,0.00,,---,0.00,VWS V14.00,2013-03-27 13:00:00,
2013-03-27 08:05:00,28.4,23.6,29.74,North,0,0.0,1.0,82,0.00,,---,0.00,VWS V14.00,2013-03-27 13:05:00,
2013-03-27 08:10:00,29.8,25.0,29.74,North,0,0.0,1.0,82,0.00,,---,0.00,VWS V14.00,2013-03-27 13:10:00,
2013-03-27 08:15:00,29.8,25.0,29.74,North,0,0.0,1.0,82,0.00,,---,0.00,VWS V14.00,2013-03-27 13:15:00,
2013-03-27 08:20:00,29.8,25.0,29.74,NE,43,0.0,1.0,82,0.00,,---,0.00,VWS V14.00,2013-03-27 13:20:00,
2013-03-27 08:25:00,29.8,25.0,29.74,NE,51,0.0,1.0,82,0.00,,---,0.00,VWS V14.00,2013-03-27 13:25:00,
2013-03-27 08:30:00,33.1,28.8,29.74,NE,51,0.0,1.0,84,0.00,,---,0.00,VWS V14.00,2013-03-27 13:30:00,
2013-03-27 08:35:00,33.1,28.8,29.74,East,96,5.4,7.4,84,0.00,,---,0.00,VWS V14.00,2013-03-27 13:35:00,
2013-03-27 08:40:00,33.1,28.8,29.74,SSE,158,4.0,5.8,84,0.00,,---,0.00,VWS V14.00,2013-03-27 13:40:00,
2013-03-27 08:45:00,33.1,28.8,29.74,South,172,4.7,6.6,84,0.00,,---,0.00,VWS V14.00,2013-03-27 13:45:00,
2013-03-27 08:50:00,33.1,28.8,29.77,South,175,3.4,7.4,84,0.00,,---,0.00,VWS V14.00,2013-03-27 13:50:00,
2013-03-27 08:55:00,35.8,30.2,29.77,SSE,155,4.7,6.6,80,0.00,,---,0.00,VWS V14.00,2013-03-27 13:55:00,
2013-03-27 09:00:00,35.8,30.2,29.77,South,176,4.0,5.8,80,0.00,,---,0.00,VWS V14.00,2013-03-27 14:00:00,
2013-03-27 09:05:00,35.8,30.2,29.77,East,90,5.4,7.4,80,0.00,,---,0.00,VWS V14.00,2013-03-27 14:05:00,
2013-03-27 09:10:00,35.8,30.2,29.77,SE,144,6.0,8.2,80,0.00,,---,0.00,VWS V14.00,2013-03-27 14:10:00,
2013-03-27 09:15:00,37.8,24.3,29.77,ESE,112,0.0,5.8,58,0.00,,---,0.00,VWS V14.00,2013-03-27 14:15:00,
2013-03-27 09:20:00,37.8,24.3,29.77,ESE,112,3.4,5.0,58,0.00,,---,0.00,VWS V14.00,2013-03-27 14:20:00,
2013-03-27 09:25:00,37.8,24.3,29.77,ESE,105,4.7,7.4,58,0.00,,---,0.00,VWS V14.00,2013-03-27 14:25:00,
2013-03-27 09:30:00,37.8,24.3,29.77,East,100,0.0,1.0,58,0.00,,---,0.00,VWS V14.00,2013-03-27 14:30:00,
2013-03-27 09:35:00,37.8,24.3,29.77,NE,47,0.0,1.0,58,0.00,,---,0.00,VWS V14.00,2013-03-27 14:35:00,
2013-03-27 09:40:00,37.8,24.3,29.77,North,353,5.4,7.4,58,0.00,,---,0.00,VWS V14.00,2013-03-27 14:40:00,
2013-03-27 09:45:00,37.8,24.3,29.77,ESE,105,7.4,9.9,58,0.00,,---,0.00,VWS V14.00,2013-03-27 14:45:00,
2013-03-27 09:50:00,39.4,22.8,29.77,ESE,107,0.0,5.0,51,0.00,,---,0.00,VWS V14.00,2013-03-27 14:50:00,
2013-03-27 09:55:00,39.4,22.8,29.77,North,353,0.0,1.0,51,0.00,,---,0.00,VWS V14.00,2013-03-27 14:55:00,
2013-03-27 10:00:00,39.4,22.8,29.77,West,274,0.0,8.2,51,0.00,,---,0.00,VWS V14.00,2013-03-27 15:00:00,
2013-03-27 10:05:00,39.4,22.8,29.77,NNE,29,3.4,5.0,51,0.00,,---,0.00,VWS V14.00,2013-03-27 15:05:00,
2013-03-27 10:10:00,39.4,22.8,29.77,West,266,0.0,1.0,51,0.00,,---,0.00,VWS V14.00,2013-03-27 15:10:00,
2013-03-27 10:15:00,39.4,22.8,29.77,WNW,283,5.4,7.4,51,0.00,,---,0.00,VWS V14.00,2013-03-27 15:15:00,
2013-03-27 10:20:00,39.4,22.8,29.77,WNW,285,0.0,1.0,51,0.00,,---,0.00,VWS V14.00,2013-03-27 15:20:00,
2013-03-27 10:25:00,39.4,22.8,29.77,West,269,6.0,8.2,51,0.00,,---,0.00,VWS V14.00,2013-03-27 15:25:00,
2013-03-27 10:30:00,39.4,22.8,29.77,West,265,8.7,11.5,51,0.00,,---,0.00,VWS V14.00,2013-03-27 15:30:00,
2013-03-27 10:35:00,40.8,22.7,29.77,West,272,0.0,6.6,48,0.00,,---,0.00,VWS V14.00,2013-03-27 15:35:00,
2013-03-27 10:40:00,40.8,22.7,29.77,NNW,328,8.7,11.5,48,0.00,,---,0.00,VWS V14.00,2013-03-27 15:40:00,
2013-03-27 10:45:00,40.8,22.7,29.77,NNW,337,11.4,14.7,48,0.00,,---,0.00,VWS V14.00,2013-03-27 15:45:00,
2013-03-27 10:50:00,40.8,22.7,29.77,NW,322,8.7,11.5,48,0.00,,---,0.00,VWS V14.00,2013-03-27 15:50:00,
2013-03-27 10:55:00,40.8,22.7,29.77,WNW,286,4.7,6.6,48,0.00,,---,0.00,VWS V14.00,2013-03-27 15:55:00,
2013-03-27 11:00:00,40.8,22.7,29.77,West,269,7.4,9.9,48,0.00,,---,0.00,VWS V14.00,2013-03-27 16:00:00,
2013-03-27 11:05:00,40.8,22.7,29.77,WNW,294,5.4,7.4,48,0.00,,---,0.00,VWS V14.00,2013-03-27 16:05:00,
2013-03-27 11:10:00,40.8,22.7,29.77,SSE,156,4.7,6.6,48,0.00,,---,0.00,VWS V14.00,2013-03-27 16:10:00,
2013-03-27 11:15:00,40.8,22.7,29.77,ENE,57,0.0,7.4,48,0.00,,---,0.00,VWS V14.00,2013-03-27 16:15:00,
2013-03-27 11:20:00,42.8,23.0,29.77,West,263,6.0,9.9,45,0.00,,---,0.00,VWS V14.00,2013-03-27 16:20:00,
2013-03-27 11:25:00,42.8,23.0,29.77,South,182,5.4,7.4,45,0.00,,---,0.00,VWS V14.00,2013-03-27 16:25:00,
2013-03-27 11:30:00,42.8,23.0,29.77,WNW,291,6.0,8.2,45,0.00,,---,0.00,VWS V14.00,2013-03-27 16:30:00,
2013-03-27 11:35:00,42.8,23.0,29.77,NE,35,8.1,11.5,45,0.00,,---,0.00,VWS V14.00,2013-03-27 16:35:00,
2013-03-27 11:40:00,42.8,23.0,29.77,North,353,12.1,15.5,45,0.00,,---,0.00,VWS V14.00,2013-03-27 16:40:00,
2013-03-27 11:45:00,42.8,23.0,29.77,North,1,5.4,9.9,45,0.00,,---,0.00,VWS V14.00,2013-03-27 16:45:00,
2013-03-27 11:50:00,42.8,23.0,29.77,West,266,6.0,9.9,45,0.00,,---,0.00,VWS V14.00,2013-03-27 16:50:00,
2013-03-27 11:55:00,42.8,23.0,29.77,NNW,345,0.0,1.0,45,0.00,,---,0.00,VWS V14.00,2013-03-27 16:55:00,
2013-03-27 12:00:00,42.8,23.0,29.77,South,175,6.7,9.1,45,0.00,,---,0.00,VWS V14.00,2013-03-27 17:00:00,
2013-03-27 12:05:00,42.8,23.0,29.77,SSW,192,5.4,7.4,45,0.00,,---,0.00,VWS V14.00,2013-03-27 17:05:00,
2013-03-27 12:10:00,42.8,23.0,29.77,SSW,198,0.0,1.0,45,0.00,,---,0.00,VWS V14.00,2013-03-27 17:10:00,
2013-03-27 12:15:00,42.8,23.0,29.77,NW,310,4.0,5.8,45,0.00,,---,0.00,VWS V14.00,2013-03-27 17:15:00,
2013-03-27 12:20:00,42.8,23.0,29.77,West,264,6.0,10.7,45,0.00,,---,0.00,VWS V14.00,2013-03-27 17:20:00,
2013-03-27 12:25:00,42.8,23.0,29.77,West,265,4.7,6.6,45,0.00,,---,0.00,VWS V14.00,2013-03-27 17:25:00,
2013-03-27 12:30:00,42.8,23.0,29.77,NNW,348,8.7,11.5,45,0.00,,---,0.00,VWS V14.00,2013-03-27 17:30:00,
2013-03-27 12:35:00,45.9,24.6,29.77,North,5,7.4,9.9,43,0.00,,---,0.00,VWS V14.00,2013-03-27 17:35:00,
2013-03-27 12:40:00,45.9,24.6,29.77,West,271,7.4,9.9,43,0.00,,---,0.00,VWS V14.00,2013-03-27 17:40:00,
2013-03-27 12:45:00,45.9,24.6,29.77,WNW,298,8.7,11.5,43,0.00,,---,0.00,VWS V14.00,2013-03-27 17:45:00,
2013-03-27 12:50:00,45.9,24.6,29.74,West,266,8.1,10.7,43,0.00,,---,0.00,VWS V14.00,2013-03-27 17:50:00,
2013-03-27 12:55:00,45.9,24.6,29.74,NNE,18,4.7,6.6,43,0.00,,---,0.00,VWS V14.00,2013-03-27 17:55:00,
2013-03-27 13:00:00,45.9,24.6,29.74,WNW,282,8.7,11.5,43,0.00,,---,0.00,VWS V14.00,2013-03-27 18:00:00,
2013-03-27 13:05:00,45.9,24.6,29.74,West,264,9.4,12.3,43,0.00,,---,0.00,VWS V14.00,2013-03-27 18:05:00,
2013-03-27 13:10:00,45.9,24.6,29.74,WNW,284,0.0,1.0,43,0.00,,---,0.00,VWS V14.00,2013-03-27 18:10:00,
2013-03-27 13:15:00,45.9,24.6,29.74,WNW,289,4.7,11.5,43,0.00,,---,0.00,VWS V14.00,2013-03-27 18:15:00,
2013-03-27 13:20:00,45.9,24.6,29.74,NW,306,8.1,10.7,43,0.00,,---,0.00,VWS V14.00,2013-03-27 18:20:00,
2013-03-27 13:25:00,48.4,25.8,29.74,WNW,290,8.1,10.7,41,0.00,,---,0.00,VWS V14.00,2013-03-27 18:25:00,
2013-03-27 13:30:00,48.4,25.8,29.74,West,275,7.4,12.3,41,0.00,,---,0.00,VWS V14.00,2013-03-27 18:30:00,
2013-03-27 13:35:00,48.4,25.8,29.74,North,357,8.1,10.7,41,0.00,,---,0.00,VWS V14.00,2013-03-27 18:35:00,
2013-03-27 13:40:00,48.4,25.8,29.74,WNW,285,8.1,10.7,41,0.00,,---,0.00,VWS V14.00,2013-03-27 18:40:00,
2013-03-27 13:45:00,48.4,25.8,29.74,North,11,9.4,12.3,41,0.00,,---,0.00,VWS V14.00,2013-03-27 18:45:00,
2013-03-27 13:50:00,48.4,25.8,29.74,WNW,290,4.0,13.1,41,0.00,,---,0.00,VWS V14.00,2013-03-27 18:50:00,
2013-03-27 13:55:00,48.4,25.2,29.74,SSW,196,4.0,6.6,40,0.00,,---,0.00,VWS V14.00,2013-03-27 18:55:00,
2013-03-27 14:00:00,48.4,25.2,29.74,West,280,6.0,8.2,40,0.00,,---,0.00,VWS V14.00,2013-03-27 19:00:00,
2013-03-27 14:05:00,48.4,25.2,29.74,WNW,292,6.0,8.2,40,0.00,,---,0.00,VWS V14.00,2013-03-27 19:05:00,
2013-03-27 14:10:00,48.4,25.2,29.74,WNW,290,4.7,9.9,40,0.00,,---,0.00,VWS V14.00,2013-03-27 19:10:00,
2013-03-27 14:15:00,48.4,25.2,29.74,West,280,10.1,13.1,40,0.00,,---,0.00,VWS V14.00,2013-03-27 19:15:00,
2013-03-27 14:20:00,48.4,25.2,29.71,NNW,344,9.4,12.3,40,0.00,,---,0.00,VWS V14.00,2013-03-27 19:20:00,
2013-03-27 14:25:00,48.4,25.2,29.71,SW,222,9.4,12.3,40,0.00,,---,0.00,VWS V14.00,2013-03-27 19:25:00,
2013-03-27 14:30:00,48.4,25.2,29.71,North,353,3.4,5.0,40,0.00,,---,0.00,VWS V14.00,2013-03-27 19:30:00,
2013-03-27 14:35:00,48.4,25.2,29.71,SSW,209,3.4,5.0,40,0.00,,---,0.00,VWS V14.00,2013-03-27 19:35:00,
2013-03-27 14:40:00,48.4,25.2,29.71,NW,326,8.7,14.7,40,0.00,,---,0.00,VWS V14.00,2013-03-27 19:40:00,
2013-03-27 14:45:00,48.4,25.2,29.71,WNW,283,9.4,12.3,40,0.00,,---,0.00,VWS V14.00,2013-03-27 19:45:00,
2013-03-27 14:50:00,48.4,25.2,29.71,WSW,247,9.4,12.3,40,0.00,,---,0.00,VWS V14.00,2013-03-27 19:50:00,
2013-03-27 14:55:00,48.4,25.2,29.71,North,2,5.4,9.1,40,0.00,,---,0.00,VWS V14.00,2013-03-27 19:55:00,
2013-03-27 15:00:00,48.4,25.2,29.71,NNW,338,7.4,9.9,40,0.00,,---,0.00,VWS V14.00,2013-03-27 20:00:00,
2013-03-27 15:05:00,48.4,25.2,29.71,West,259,4.7,6.6,40,0.00,,---,0.00,VWS V14.00,2013-03-27 20:05:00,
2013-03-27 15:10:00,48.4,25.2,29.71,South,191,6.0,11.5,40,0.00,,---,0.00,VWS V14.00,2013-03-27 20:10:00,
2013-03-27 15:15:00,48.4,25.2,29.71,West,279,8.7,11.5,40,0.00,,---,0.00,VWS V14.00,2013-03-27 20:15:00,
2013-03-27 15:20:00,48.4,25.2,29.71,North,350,8.1,10.7,40,0.00,,---,0.00,VWS V14.00,2013-03-27 20:20:00,
2013-03-27 15:25:00,48.4,25.2,29.71,NW,325,0.0,10.7,40,0.00,,---,0.00,VWS V14.00,2013-03-27 20:25:00,
2013-03-27 15:30:00,48.4,25.2,29.71,NNW,348,7.4,11.5,40,0.00,,---,0.00,VWS V14.00,2013-03-27 20:30:00,
2013-03-27 15:35:00,48.4,25.2,29.71,West,270,8.7,11.5,40,0.00,,---,0.00,VWS V14.00,2013-03-27 20:35:00,
2013-03-27 15:40:00,48.4,25.2,29.71,West,262,6.0,8.2,40,0.00,,---,0.00,VWS V14.00,2013-03-27 20:40:00,
2013-03-27 15:45:00,48.4,25.2,29.71,WSW,246,6.0,8.2,40,0.00,,---,0.00,VWS V14.00,2013-03-27 20:45:00,
2013-03-27 15:50:00,48.4,25.2,29.68,NW,311,6.0,8.2,40,0.00,,---,0.00,VWS V14.00,2013-03-27 20:50:00,
2013-03-27 15:55:00,48.4,25.2,29.68,South,186,3.4,5.0,40,0.00,,---,0.00,VWS V14.00,2013-03-27 20:55:00,
2013-03-27 16:00:00,48.4,25.2,29.68,NNW,341,8.1,10.7,40,0.00,,---,0.00,VWS V14.00,2013-03-27 21:00:00,
2013-03-27 16:05:00,48.4,25.2,29.68,NNW,334,11.4,14.7,40,0.00,,---,0.00,VWS V14.00,2013-03-27 21:05:00,
2013-03-27 16:10:00,48.4,25.2,29.68,NW,304,5.4,7.4,40,0.00,,---,0.00,VWS V14.00,2013-03-27 21:10:00,
2013-03-27 16:15:00,48.4,25.2,29.68,WNW,301,5.4,7.4,40,0.00,,---,0.00,VWS V14.00,2013-03-27 21:15:00,
2013-03-27 16:20:00,48.4,25.2,29.68,North,4,9.4,12.3,40,0.00,,---,0.00,VWS V14.00,2013-03-27 21:20:00,
2013-03-27 16:25:00,48.4,25.2,29.68,NNW,344,9.4,12.3,40,0.00,,---,0.00,VWS V14.00,2013-03-27 21:25:00,
2013-03-27 16:30:00,48.4,25.2,29.68,North,0,9.4,12.3,40,0.00,,---,0.00,VWS V14.00,2013-03-27 21:30:00,
2013-03-27 16:35:00,48.4,25.2,29.68,WSW,258,6.0,8.2,40,0.00,,---,0.00,VWS V14.00,2013-03-27 21:35:00,
2013-03-27 16:40:00,48.4,25.2,29.68,West,270,0.0,1.0,40,0.00,,---,0.00,VWS V14.00,2013-03-27 21:40:00,
2013-03-27 16:45:00,48.4,25.2,29.68,West,266,5.4,9.1,40,0.00,,---,0.00,VWS V14.00,2013-03-27 21:45:00,
2013-03-27 16:50:00,48.4,25.2,29.68,West,276,4.0,5.8,40,0.00,,---,0.00,VWS V14.00,2013-03-27 21:50:00,
2013-03-27 16:55:00,48.4,25.2,29.68,WNW,297,4.0,12.3,40,0.00,,---,0.00,VWS V14.00,2013-03-27 21:55:00,
2013-03-27 17:00:00,49.6,25.7,29.68,NW,321,9.4,12.3,39,0.00,,---,0.00,VWS V14.00,2013-03-27 22:00:00,
2013-03-27 17:05:00,49.6,25.7,29.68,North,353,4.7,11.5,39,0.00,,---,0.00,VWS V14.00,2013-03-27 22:05:00,
2013-03-27 17:10:00,49.6,25.7,29.68,WNW,287,4.7,6.6,39,0.00,,---,0.00,VWS V14.00,2013-03-27 22:10:00,
2013-03-27 17:15:00,49.6,25.7,29.68,NNW,330,5.4,7.4,39,0.00,,---,0.00,VWS V14.00,2013-03-27 22:15:00,
2013-03-27 17:20:00,49.6,25.7,29.68,West,278,3.4,5.0,39,0.00,,---,0.00,VWS V14.00,2013-03-27 22:20:00,
2013-03-27 17:25:00,49.6,25.7,29.68,NW,325,5.4,7.4,39,0.00,,---,0.00,VWS V14.00,2013-03-27 22:25:00,
2013-03-27 17:30:00,49.6,25.7,29.68,North,5,6.0,8.2,39,0.00,,---,0.00,VWS V14.00,2013-03-27 22:30:00,
2013-03-27 17:35:00,49.6,25.7,29.68,NW,316,4.7,6.6,39,0.00,,---,0.00,VWS V14.00,2013-03-27 22:35:00,
2013-03-27 17:40:00,49.6,25.7,29.68,WNW,287,4.7,6.6,39,0.00,,---,0.00,VWS V14.00,2013-03-27 22:40:00,
2013-03-27 17:45:00,49.6,25.7,29.68,NW,311,4.7,7.4,39,0.00,,---,0.00,VWS V14.00,2013-03-27 22:45:00,
2013-03-27 17:50:00,49.6,25.7,29.68,NNW,336,6.0,8.2,39,0.00,,---,0.00,VWS V14.00,2013-03-27 22:50:00,
2013-03-27 17:55:00,49.6,25.7,29.68,North,3,9.4,12.3,39,0.00,,---,0.00,VWS V14.00,2013-03-27 22:55:00,
2013-03-27 18:00:00,49.6,25.7,29.68,North,4,10.1,13.1,39,0.00,,---,0.00,VWS V14.00,2013-03-27 23:00:00,
2013-03-27 18:05:00,49.6,25.7,29.68,North,6,7.4,9.9,39,0.00,,---,0.00,VWS V14.00,2013-03-27 23:05:00,
2013-03-27 18:10:00,48.7,24.9,29.68,NW,326,6.0,8.2,39,0.00,,---,0.00,VWS V14.00,2013-03-27 23:10:00,
2013-03-27 18:15:00,48.7,24.9,29.68,North,353,4.7,6.6,39,0.00,,---,0.00,VWS V14.00,2013-03-27 23:15:00,
2013-03-27 18:20:00,48.7,24.9,29.68,North,0,4.0,5.8,39,0.00,,---,0.00,VWS V14.00,2013-03-27 23:20:00,
2013-03-27 18:25:00,48.9,25.1,29.68,North,1,4.7,6.6,39,0.00,,---,0.00,VWS V14.00,2013-03-27 23:25:00,
2013-03-27 18:30:00,48.9,25.1,29.68,North,353,4.7,6.6,39,0.00,,---,0.00,VWS V14.00,2013-03-27 23:30:00,
2013-03-27 18:35:00,48.7,24.9,29.68,NNW,348,7.4,9.9,39,0.00,,---,0.00,VWS V14.00,2013-03-27 23:35:00,
2013-03-27 18:40:00,48.0,24.9,29.68,NNW,341,7.4,10.7,40,0.00,,---,0.00,VWS V14.00,2013-03-27 23:40:00,
2013-03-27 18:45:00,48.0,24.9,29.68,North,349,6.0,8.2,40,0.00,,---,0.00,VWS V14.00,2013-03-27 23:45:00,
2013-03-27 18:50:00,47.5,24.4,29.68,North,353,4.7,6.6,40,0.00,,---,0.00,VWS V14.00,2013-03-27 23:50:00,
2013-03-27 18:55:00,47.5,24.4,29.68,NNW,348,4.0,5.8,40,0.00,,---,0.00,VWS V14.00,2013-03-27 23:55:00,
2013-03-27 19:00:00,46.6,23.6,29.68,NNW,346,4.0,5.8,40,0.00,,---,0.00,VWS V14.00,2013-03-28 00:00:00,
2013-03-27 19:05:00,46.2,23.8,29.68,North,353,3.4,6.6,41,0.00,,---,0.00,VWS V14.00,2013-03-28 00:05:00,
2013-03-27 19:10:00,45.9,23.5,29.68,North,353,0.0,1.0,41,0.00,,---,0.00,VWS V14.00,2013-03-28 00:10:00,
2013-03-27 19:15:00,45.0,23.3,29.68,North,353,0.0,1.0,42,0.00,,---,0.00,VWS V14.00,2013-03-28 00:15:00,
2013-03-27 19:20:00,44.4,23.9,29.68,North,353,0.0,1.0,44,0.00,,---,0.00,VWS V14.00,2013-03-28 00:20:00,
2013-03-27 19:25:00,44.2,23.7,29.68,North,353,0.0,1.0,44,0.00,,---,0.00,VWS V14.00,2013-03-28 00:25:00,
2013-03-27 19:30:00,43.7,23.8,29.68,North,353,0.0,1.0,45,0.00,,---,0.00,VWS V14.00,2013-03-28 00:30:00,
2013-03-27 19:35:00,43.3,24.0,29.68,North,353,0.0,1.0,46,0.00,,---,0.00,VWS V14.00,2013-03-28 00:35:00,
2013-03-27 19:40:00,43.0,24.1,29.68,North,353,0.0,1.0,47,0.00,,---,0.00,VWS V14.00,2013-03-28 00:40:00,
2013-03-27 19:45:00,42.6,24.3,29.68,North,353,0.0,1.0,48,0.00,,---,0.00,VWS V14.00,2013-03-28 00:45:00,
2013-03-27 19:50:00,42.6,24.3,29.68,North,353,0.0,1.0,48,0.00,,---,0.00,VWS V14.00,2013-03-28 00:50:00,
2013-03-27 19:55:00,42.1,23.8,29.68,North,353,0.0,1.0,48,0.00,,---,0.00,VWS V14.00,2013-03-28 00:55:00,
2013-03-27 20:00:00,41.9,24.1,29.68,North,353,0.0,1.0,49,0.00,,---,0.00,VWS V14.00,2013-03-28 01:00:00,
2013-03-27 20:05:00,41.5,23.8,29.68,North,353,0.0,1.0,49,0.00,,---,0.00,VWS V14.00,2013-03-28 01:05:00,
2013-03-27 20:10:00,41.4,23.6,29.68,North,353,0.0,1.0,49,0.00,,---,0.00,VWS V14.00,2013-03-28 01:10:00,
2013-03-27 20:15:00,41.2,24.0,29.68,North,353,0.0,1.0,50,0.00,,---,0.00,VWS V14.00,2013-03-28 01:15:00,
2013-03-27 20:20:00,41.0,23.8,29.68,North,353,0.0,1.0,50,0.00,,---,0.00,VWS V14.00,2013-03-28 01:20:00,
2013-03-27 20:25:00,40.8,24.1,29.68,North,353,0.0,1.0,51,0.00,,---,0.00,VWS V14.00,2013-03-28 01:25:00,
2013-03-27 20:30:00,40.5,24.2,29.68,North,353,0.0,1.0,52,0.00,,---,0.00,VWS V14.00,2013-03-28 01:30:00,
2013-03-27 20:35:00,40.1,24.4,29.68,North,353,0.0,1.0,53,0.00,,---,0.00,VWS V14.00,2013-03-28 01:35:00,
2013-03-27 20:40:00,40.1,24.4,29.68,North,353,0.0,1.0,53,0.00,,---,0.00,VWS V14.00,2013-03-28 01:40:00,
2013-03-27 20:45:00,38.8,24.1,29.68,North,353,0.0,1.0,55,0.00,,---,0.00,VWS V14.00,2013-03-28 01:45:00,
2013-03-27 20:50:00,38.8,24.5,29.65,North,353,0.0,1.0,56,0.00,,---,0.00,VWS V14.00,2013-03-28 01:50:00,
2013-03-27 20:55:00,38.8,24.5,29.65,North,353,0.0,1.0,56,0.00,,---,0.00,VWS V14.00,2013-03-28 01:55:00,
2013-03-27 21:00:00,38.7,24.8,29.65,North,353,0.0,1.0,57,0.00,,---,0.00,VWS V14.00,2013-03-28 02:00:00,
2013-03-27 21:06:00,38.5,24.6,29.68,North,353,0.0,1.0,57,0.00,,---,0.00,VWS V14.00,2013-03-28 02:06:00,
2013-03-27 21:11:00,38.5,25.0,29.68,North,353,0.0,1.0,58,0.00,,---,0.00,VWS V14.00,2013-03-28 02:11:00,
2013-03-27 21:15:00,38.7,25.2,29.68,North,353,0.0,1.0,58,0.00,,---,0.00,VWS V14.00,2013-03-28 02:15:00,
2013-03-27 21:21:00,38.7,25.2,29.68,North,353,0.0,1.0,58,0.00,,---,0.00,VWS V14.00,2013-03-28 02:21:00,
2013-03-27 21:26:00,38.7,26.0,29.68,North,353,0.0,1.0,60,0.00,,---,0.00,VWS V14.00,2013-03-28 02:26:00,
2013-03-27 21:31:00,38.7,26.0,29.68,North,353,0.0,1.0,60,0.00,,---,0.00,VWS V14.00,2013-03-28 02:31:00,
2013-03-27 21:36:00,38.7,26.4,29.68,North,353,0.0,1.0,61,0.00,,---,0.00,VWS V14.00,2013-03-28 02:36:00,
2013-03-27 21:41:00,38.8,27.0,29.68,North,353,0.0,1.0,62,0.00,,---,0.00,VWS V14.00,2013-03-28 02:41:00,
2013-03-27 21:46:00,39.0,27.1,29.68,North,353,0.0,1.0,62,0.00,,---,0.00,VWS V14.00,2013-03-28 02:46:00,
2013-03-27 21:51:00,39.2,26.9,29.68,North,353,0.0,1.0,61,0.00,,---,0.00,VWS V14.00,2013-03-28 02:51:00,
2013-03-27 21:56:00,39.6,26.4,29.68,North,353,0.0,1.0,59,0.00,,---,0.00,VWS V14.00,2013-03-28 02:56:00,
2013-03-27 22:01:00,39.4,26.3,29.68,North,353,0.0,1.0,59,0.00,,---,0.00,VWS V14.00,2013-03-28 03:01:00,
2013-03-27 22:06:00,39.2,25.7,29.68,North,353,0.0,1.0,58,0.00,,---,0.00,VWS V14.00,2013-03-28 03:06:00,
2013-03-27 22:11:00,39.0,25.9,29.68,North,353,0.0,1.0,59,0.00,,---,0.00,VWS V14.00,2013-03-28 03:11:00,
2013-03-27 22:16:00,38.8,25.8,29.68,North,353,0.0,1.0,59,0.00,,---,0.00,VWS V14.00,2013-03-28 03:16:00,
2013-03-27 22:21:00,38.8,25.8,29.68,North,353,0.0,1.0,59,0.00,,---,0.00,VWS V14.00,2013-03-28 03:21:00,
2013-03-27 22:26:00,38.8,25.8,29.68,North,353,0.0,1.0,59,0.00,,---,0.00,VWS V14.00,2013-03-28 03:26:00,
2013-03-27 22:31:00,38.7,26.0,29.68,North,353,0.0,1.0,60,0.00,,---,0.00,VWS V14.00,2013-03-28 03:31:00,
2013-03-27 22:36:00,38.7,26.0,29.68,North,353,0.0,1.0,60,0.00,,---,0.00,VWS V14.00,2013-03-28 03:36:00,
2013-03-27 22:41:00,38.7,26.0,29.68,North,353,0.0,1.0,60,0.00,,---,0.00,VWS V14.00,2013-03-28 03:41:00,
2013-03-27 22:46:00,38.7,26.0,29.68,North,353,0.0,1.0,60,0.00,,---,0.00,VWS V14.00,2013-03-28 03:46:00,
2013-03-27 22:51:00,38.8,26.6,29.68,North,353,0.0,1.0,61,0.00,,---,0.00,VWS V14.00,2013-03-28 03:51:00,
2013-03-27 22:56:00,38.8,26.6,29.68,North,353,0.0,1.0,61,0.00,,---,0.00,VWS V14.00,2013-03-28 03:56:00,
2013-03-27 23:00:00,38.8,26.6,29.68,North,353,0.0,1.0,61,0.00,,---,0.00,VWS V14.00,2013-03-28 04:00:00,
2013-03-27 23:05:00,38.8,27.0,29.68,North,353,0.0,1.0,62,0.00,,---,0.00,VWS V14.00,2013-03-28 04:05:00,
2013-03-27 23:10:00,38.8,27.0,29.68,North,353,0.0,1.0,62,0.00,,---,0.00,VWS V14.00,2013-03-28 04:10:00,
2013-03-27 23:15:00,38.7,26.8,29.68,North,353,0.0,1.0,62,0.00,,---,0.00,VWS V14.00,2013-03-28 04:15:00,
2013-03-27 23:20:00,38.8,27.0,29.68,North,353,0.0,1.0,62,0.00,,---,0.00,VWS V14.00,2013-03-28 04:20:00,
2013-03-27 23:25:00,39.0,27.1,29.68,North,353,0.0,1.0,62,0.00,,---,0.00,VWS V14.00,2013-03-28 04:25:00,
2013-03-27 23:30:00,38.8,27.3,29.68,North,353,0.0,1.0,63,0.00,,---,0.00,VWS V14.00,2013-03-28 04:30:00,
2013-03-27 23:35:00,38.8,27.0,29.68,North,353,0.0,1.0,62,0.00,,---,0.00,VWS V14.00,2013-03-28 04:35:00,
2013-03-27 23:40:00,38.5,27.0,29.68,North,353,0.0,1.0,63,0.00,,---,0.00,VWS V14.00,2013-03-28 04:40:00,
2013-03-27 23:45:00,38.5,27.0,29.68,North,353,0.0,1.0,63,0.00,,---,0.00,VWS V14.00,2013-03-28 04:45:00,
2013-03-27 23:50:00,38.3,27.2,29.68,North,353,0.0,1.0,64,0.00,,---,0.00,VWS V14.00,2013-03-28 04:50:00,
2013-03-27 23:55:00,38.3,27.2,29.68,North,353,0.0,1.0,64,0.00,,---,0.00,VWS V14.00,2013-03-28 04:55:00,